Find Starlink 34808

NORAD ID: 65745 Int'l Des: 2025-216 Owner: SPXS Country: US Constellation: starlink operational
LEOCIRCULAR

当前视图

正在加载3D地球...

关于 Starlink 34808

正在加载描述...

即将过境

Passes for default location (London). Set your location on the main map for personalized predictions.

高度历史

Loading altitude history...

两行轨道根数

1 65745U 25216M 26149.44681941 .00029094 00000-0 99035-3 0 9995
2 65745 53.1598 317.3707 0000925 108.6034 251.5067 15.30208030 38881
Epoch: May 29, 2026 • Age: 17 hours

当前状态

高度 493.3 km
速度 7.62 km/s
星下点 -51.02°S, 55.15°W
发射日期 Sep 25, 2025
运行时间 0.6 years
类型 internet

技术详情

分类 Payload
质量 575.00 kg
干质量 530.00 kg
总质量 575.00 kg
长度 0.30 m
直径 4.10 m
跨度 29.00 m
形状 Box + pan
制造商 SPXS
平台类型 Starlink V2MO
阶段状态 In Orbit
所有者/国家 SPXS/US

Most Searched